Time,TemperatureF,DewpointF,PressureIn,WindDirection,WindDirectionDegrees,WindSpeedMPH,WindSpeedGustMPH,Humidity,HourlyPrecipIn,Conditions,Clouds,dailyrainin,SoftwareType,DateUTC
2013-09-12 00:23:00,72.0,71.0,-100.00,West,275,7.0,9.0,96,-99.99,,,-99.99,,2013-09-12 05:23:00,
2013-09-12 00:53:00,72.0,71.0,-100.00,WNW,290,7.0,9.0,96,-99.99,,,-99.99,,2013-09-12 05:53:00,
2013-09-12 01:22:00,72.0,71.0,-100.00,WNW,295,6.0,9.0,96,-99.99,,,-99.99,,2013-09-12 06:22:00,
2013-09-12 01:52:00,72.0,71.0,-100.00,West,260,8.0,11.0,96,-99.99,,,-99.99,,2013-09-12 06:52:00,
2013-09-12 02:22:00,72.0,71.0,-100.00,West,260,8.0,14.0,96,-99.99,,,-99.99,,2013-09-12 07:22:00,
2013-09-12 02:52:00,72.0,71.0,-100.00,West,275,10.0,13.0,96,-99.99,,,-99.99,,2013-09-12 07:52:00,
2013-09-12 03:22:00,72.0,70.0,-100.00,West,280,7.0,13.0,96,-99.99,,,-99.99,,2013-09-12 08:22:00,
2013-09-12 03:52:00,71.0,70.0,-100.00,WNW,295,8.0,10.0,96,-99.99,,,-99.99,,2013-09-12 08:52:00,
2013-09-12 04:21:00,71.0,70.0,-100.00,NW,305,7.0,10.0,96,-99.99,,,-99.99,,2013-09-12 09:21:00,
2013-09-12 04:53:00,70.0,69.0,-100.00,NW,310,9.0,11.0,97,-99.99,,,-99.99,,2013-09-12 09:53:00,
2013-09-12 05:23:00,70.0,69.0,-100.00,WNW,300,7.0,11.0,97,-99.99,,,-99.99,,2013-09-12 10:23:00,
2013-09-12 05:53:00,70.0,69.0,-100.00,NW,310,6.0,10.0,97,-99.99,,,-99.99,,2013-09-12 10:53:00,
2013-09-12 06:22:00,69.0,68.0,-100.00,NW,315,6.0,8.0,97,-99.99,,,-99.99,,2013-09-12 11:22:00,
2013-09-12 06:52:00,69.0,68.0,-100.00,NW,315,9.0,11.0,97,-99.99,,,-99.99,,2013-09-12 11:52:00,
2013-09-12 07:22:00,69.0,68.0,-100.00,NW,310,8.0,11.0,97,-99.99,,,-99.99,,2013-09-12 12:22:00,
2013-09-12 07:52:00,69.0,68.0,-100.00,WNW,290,6.0,8.0,97,-99.99,,,-99.99,,2013-09-12 12:52:00,
2013-09-12 08:22:00,69.0,68.0,-100.00,WNW,285,7.0,9.0,97,-99.99,,,-99.99,,2013-09-12 13:22:00,
2013-09-12 08:52:00,70.0,68.0,-100.00,WNW,300,11.0,14.0,95,-99.99,,,-99.99,,2013-09-12 13:52:00,
2013-09-12 09:22:00,70.0,67.0,-100.00,NW,305,11.0,15.0,91,-99.99,,,-99.99,,2013-09-12 14:22:00,
2013-09-12 09:52:00,72.0,65.0,-100.00,NW,315,10.0,12.0,77,-99.99,,,-99.99,,2013-09-12 14:52:00,
2013-09-12 10:22:00,75.0,63.0,-100.00,NW,320,13.0,16.0,66,-99.99,,,-99.99,,2013-09-12 15:22:00,
2013-09-12 10:54:00,74.0,61.0,-100.00,NW,325,13.0,19.0,63,-99.99,,,-99.99,,2013-09-12 15:54:00,
2013-09-12 11:23:00,77.0,56.0,-100.00,NNW,330,13.0,17.0,49,-99.99,,,-99.99,,2013-09-12 16:23:00,
2013-09-12 11:53:00,77.0,52.0,-100.00,NW,325,14.0,23.0,42,-99.99,,,-99.99,,2013-09-12 16:53:00,
2013-09-12 12:23:00,78.0,52.0,-100.00,NNW,330,16.0,24.0,41,-99.99,,,-99.99,,2013-09-12 17:23:00,
2013-09-12 12:54:00,79.0,52.0,-100.00,North,0,11.0,22.0,39,-99.99,,,-99.99,,2013-09-12 17:54:00,
2013-09-12 13:22:00,79.0,50.0,-100.00,NW,320,17.0,26.0,36,-99.99,,,-99.99,,2013-09-12 18:22:00,
2013-09-12 13:52:00,79.0,49.0,-100.00,NNW,330,19.0,26.0,34,-99.99,,,-99.99,,2013-09-12 18:52:00,
2013-09-12 14:22:00,79.0,47.0,-100.00,NNW,345,18.0,29.0,32,-99.99,,,-99.99,,2013-09-12 19:22:00,
2013-09-12 14:52:00,80.0,46.0,-100.00,NW,325,22.0,30.0,30,-99.99,,,-99.99,,2013-09-12 19:52:00,
2013-09-12 15:22:00,81.0,46.0,-100.00,NW,315,17.0,24.0,30,-99.99,,,-99.99,,2013-09-12 20:22:00,
2013-09-12 15:52:00,80.0,44.0,-100.00,NNW,330,21.0,28.0,29,-99.99,,,-99.99,,2013-09-12 20:52:00,
2013-09-12 16:22:00,80.0,45.0,-100.00,NW,325,14.0,28.0,30,-99.99,,,-99.99,,2013-09-12 21:22:00,
2013-09-12 16:54:00,79.0,45.0,-100.00,NW,325,14.0,24.0,30,-99.99,,,-99.99,,2013-09-12 21:54:00,
2013-09-12 17:24:00,78.0,44.0,-100.00,North,0,19.0,29.0,30,-99.99,,,-99.99,,2013-09-12 22:24:00,
2013-09-12 17:54:00,77.0,43.0,-100.00,NNW,330,17.0,24.0,30,-99.99,,,-99.99,,2013-09-12 22:54:00,
2013-09-12 18:23:00,76.0,43.0,-100.00,North,350,14.0,27.0,31,-99.99,,,-99.99,,2013-09-12 23:23:00,
2013-09-12 18:53:00,75.0,42.0,-100.00,NNW,335,13.0,21.0,31,-99.99,,,-99.99,,2013-09-12 23:53:00,
2013-09-12 19:22:00,73.0,44.0,-100.00,NNW,340,10.0,18.0,35,-99.99,,,-99.99,,2013-09-13 00:22:00,
2013-09-12 19:52:00,70.0,44.0,-100.00,North,355,11.0,15.0,39,-99.99,,,-99.99,,2013-09-13 00:52:00,
2013-09-12 20:22:00,69.0,45.0,-100.00,North,0,9.0,11.0,42,-99.99,,,-99.99,,2013-09-13 01:22:00,
2013-09-12 20:53:00,67.0,45.0,-100.00,North,0,8.0,12.0,46,-99.99,,,-99.99,,2013-09-13 01:53:00,
2013-09-12 21:22:00,65.0,46.0,-100.00,North,0,7.0,11.0,49,-99.99,,,-99.99,,2013-09-13 02:22:00,
2013-09-12 21:53:00,65.0,46.0,-100.00,North,0,9.0,14.0,50,-99.99,,,-99.99,,2013-09-13 02:53:00,
2013-09-12 22:22:00,62.0,47.0,-100.00,North,0,7.0,9.0,57,-99.99,,,-99.99,,2013-09-13 03:22:00,
2013-09-12 22:55:00,62.0,47.0,-100.00,North,350,6.0,9.0,58,-99.99,,,-99.99,,2013-09-13 03:55:00,
2013-09-12 23:24:00,61.0,48.0,-100.00,North,355,9.0,11.0,61,-99.99,,,-99.99,,2013-09-13 04:24:00,
2013-09-12 23:54:00,60.0,49.0,-100.00,North,355,6.0,9.0,67,-99.99,,,-99.99,,2013-09-13 04:54:00,